Theta_e
318 319 318 317 317 317 316 316 316 317 317 317 318 317 317 316 316 316 316 316 321 326 327 327 330 330 330 330 327 324 323 321 319 318 317 318 318 317 316 316 315 315 315
321 319 318 317 316 317 316 316 316 316 316 316 316 316 315 315 314 314 315 315 320 324 327 328 329 330 330 331 328 326 324 321 319 318 317 317 317 317 315 315 314 314 313
322 321 319 318 318 317 317 315 315 314 313 314 313 314 314 314 314 314 314 314 316 319 323 327 329 329 330 330 331 328 325 323 321 318 318 317 317 316 315 315 314 313 312
324 321 321 320 319 316 315 313 312 313 313 312 312 312 312 313 314 314 315 315 315 316 319 325 328 329 329 330 330 330 327 326 323 320 319 318 317 316 315 315 314 314 312
324 323 322 321 319 317 315 314 313 313 312 313 313 313 312 311 313 315 314 315 316 316 316 319 321 323 328 329 330 331 330 329 326 323 321 319 318 316 316 315 315 314 312
325 323 320 319 318 317 316 315 313 313 313 313 314 313 312 312 313 313 314 316 316 316 315 316 316 316 319 327 329 330 331 330 328 325 322 320 319 317 316 316 315 314 313
324 322 321 318 318 317 317 315 313 313 313 312 311 311 312 314 314 315 314 315 315 316 315 315 315 315 316 323 326 328 330 330 329 327 324 321 320 317 316 317 316 315 314
323 323 322 320 319 318 315 315 314 312 312 313 310 308 307 309 310 313 314 315 315 315 315 315 315 315 315 318 316 325 327 328 327 326 325 323 321 319 318 317 317 317 316
320 322 322 322 321 319 318 316 315 314 313 311 313 310 304 304 307 311 312 313 314 313 313 313 314 315 317 314 316 318 321 321 322 322 323 324 322 321 319 319 319 319 317
319 320 321 321 321 320 320 319 317 316 315 312 310 314 312 310 307 305 311 311 312 312 312 312 315 315 316 313 312 310 313 316 317 318 319 323 322 322 320 320 319 319 319
319 319 320 321 320 320 320 320 318 316 317 315 313 310 313 313 311 308 306 308 310 312 313 316 315 312 310 309 310 308 311 313 314 314 314 316 317 319 319 318 318 318 317
319 319 319 320 320 320 320 320 320 319 318 317 317 315 313 310 312 312 310 306 308 310 315 315 314 310 305 304 303 303 307 309 310 312 312 311 312 312 313 314 314 314 313
319 319 319 319 319 320 320 321 320 319 319 318 317 317 317 317 313 314 312 311 309 311 311 310 308 306 304 304 303 299 301 305 307 309 310 309 309 309 309 310 310 309 308
320 321 320 320 319 320 321 321 321 321 321 319 318 318 318 319 319 317 316 313 309 311 310 309 303 302 301 300 299 297 298 302 305 307 307 308 307 306 306 305 306 305 304
321 320 320 320 320 320 320 320 320 320 321 320 319 319 319 320 320 320 319 318 314 309 307 309 303 298 297 296 297 298 298 298 302 303 304 305 305 304 304 304 304 304 304
322 321 321 321 321 321 321 320 320 321 321 322 322 321 321 321 320 321 320 319 318 315 308 307 301 296 295 295 295 296 296 295 298 300 302 302 301 301 301 301 301 302 302
322 322 322 322 322 321 321 321 321 321 321 321 322 321 320 321 320 320 319 319 317 316 312 298 296 294 293 293 293 293 294 293 293 297 299 299 299 299 299 299 299 299 299
324 323 323 322 323 322 322 321 321 321 321 321 321 320 320 319 319 319 318 317 316 316 313 302 293 292 291 292 292 292 292 292 292 294 296 297 297 297 296 297 297 296 296
324 324 323 322 323 324 323 323 323 322 322 322 321 319 319 318 317 317 316 315 315 306 308 299 291 291 290 290 289 289 290 289 290 293 295 295 295 295 295 295 295 291 291
323 323 323 323 323 324 323 322 322 322 322 322 320 319 318 317 316 315 314 313 306 304 299 295 289 289 289 288 288 287 286 286 286 290 291 291 292 291 292 291 289 289 290
322 323 322 321 322 322 321 321 320 321 321 319 317 317 316 311 303 310 312 308 304 296 294 290 287 288 286 285 287 287 286 285 285 285 284 283 282 282 283 284 285 288 289
317 318 319 320 319 318 309 306 314 319 317 316 311 307 305 295 298 300 301 301 303 298 290 290 287 288 287 287 286 287 285 285 284 280 279 279 281 280 281 281 287 288 287
311 312 315 317 316 316 303 303 302 318 315 313 309 303 297 296 296 297 295 295 294 297 298 294 290 289 287 288 287 285 284 283 279 280 278 276 278 277 279 281 287 287 286
305 307 310 312 313 313 301 301 300 314 310 308 305 302 300 295 295 294 291 288 287 288 291 291 292 289 289 288 288 285 282 280 278 279 278 272 276 275 276 277 286 285 284
297 298 298 301 303 303 298 299 300 302 297 298 299 300 298 294 291 292 289 286 286 286 290 290 290 290 290 289 285 281 273 275 274 278 276 273 273 272 273 273 278 282 281
295 293 293 294 293 297 296 297 300 295 291 291 291 292 292 291 291 292 289 287 285 285 285 285 284 284 285 285 284 281 278 273 270 271 276 271 275 271 268 271 274 275 275
Wind_Speed
5 4 4 4 4 3 4 4 4 4 5 5 5 5 5 5 4 3 2 7 8 7 7 6 7 6 7 8 6 5 5 6 5 4 3 4 4 4 3 3 3 4 5
6 5 5 5 4 4 4 4 4 4 5 4 5 5 6 5 5 5 3 3 9 10 9 8 9 7 8 9 8 7 7 6 5 5 4 4 5 5 3 3 3 4 3
8 7 5 5 6 5 6 4 4 3 3 4 6 5 5 6 5 6 5 4 5 9 11 11 10 9 10 9 11 9 8 7 7 6 7 7 7 5 3 5 4 4 4
10 7 6 6 6 4 4 4 4 4 4 4 4 5 4 4 6 6 5 4 4 4 7 11 11 11 10 11 12 12 11 12 10 9 9 9 8 6 6 6 6 8 7
10 8 7 6 6 5 5 4 4 4 4 4 4 4 5 5 6 5 7 6 6 5 4 7 11 10 10 12 13 14 14 15 14 15 14 12 9 7 8 8 9 8 7
11 9 6 7 6 5 5 4 5 4 4 4 4 4 5 5 5 5 6 5 6 6 6 6 5 5 11 13 13 15 17 17 14 18 16 13 11 9 10 10 9 9 9
11 11 8 7 7 8 9 8 5 6 5 3 0 3 4 7 7 6 5 5 6 6 6 5 4 4 4 11 13 15 15 16 15 9 18 15 12 10 11 12 12 12 12
12 12 11 10 10 8 7 9 8 4 4 5 4 1 3 4 3 6 4 5 7 4 5 6 5 6 5 4 6 11 13 15 12 12 10 17 14 11 11 11 14 13 13
13 13 14 12 11 10 10 10 10 11 8 4 6 4 2 5 1 2 2 4 6 4 5 4 6 6 6 4 5 5 8 6 8 8 9 14 15 15 10 12 13 15 14
14 14 15 14 13 10 12 10 9 9 8 8 3 8 4 3 4 3 2 2 4 5 6 4 5 4 3 4 5 5 4 1 3 6 8 10 16 14 11 11 12 15 14
15 15 15 14 13 10 12 12 10 12 9 9 7 3 8 6 4 3 4 4 3 4 4 4 2 2 2 4 3 3 2 1 2 4 5 6 10 4 7 7 10 13 10
10 15 16 15 14 13 13 12 13 14 13 11 9 9 6 5 8 7 7 3 5 5 3 2 3 3 2 3 4 6 3 1 2 2 2 3 3 5 7 8 10 9 8
11 16 17 16 14 15 15 13 13 15 13 13 14 10 10 9 4 6 6 5 5 4 2 1 2 3 2 3 3 5 4 3 1 1 2 1 3 4 5 7 6 7 8
13 14 14 17 18 17 16 15 12 12 14 13 16 13 10 10 8 8 7 6 3 5 3 4 2 2 3 2 3 5 3 3 3 4 6 5 3 2 2 2 5 6 6
12 14 14 16 18 17 18 17 13 15 14 13 14 14 12 9 9 8 8 8 9 6 6 4 4 3 2 3 2 3 4 3 6 4 4 5 4 2 3 4 5 6 8
15 14 14 16 17 17 18 16 14 14 14 13 12 15 14 11 9 8 8 8 8 8 4 3 2 3 3 3 2 4 3 2 6 5 5 6 6 5 3 3 4 7 9
14 14 14 15 16 17 17 16 17 15 16 15 15 16 16 14 9 8 8 8 8 8 7 2 2 2 3 3 4 2 3 3 2 5 5 5 4 1 1 3 5 7 10
15 17 16 16 15 16 16 17 17 15 16 17 17 14 16 10 13 10 9 10 9 9 7 5 2 3 2 3 4 3 3 2 2 3 5 5 3 1 2 3 5 7 8
15 15 15 16 16 17 16 17 18 17 16 17 16 15 15 13 13 9 10 9 9 4 4 4 4 2 3 3 3 2 2 2 1 2 2 3 2 2 4 4 5 8 6
14 14 15 16 16 16 17 17 16 16 16 16 15 15 14 14 14 12 11 11 6 7 5 5 4 3 2 2 2 3 2 1 1 2 1 1 5 8 8 10 8 6 5
14 16 14 13 14 13 13 16 14 16 16 15 14 14 14 14 16 14 10 9 10 6 6 5 4 3 3 3 4 3 3 2 2 2 1 2 2 3 4 7 6 6 5
13 11 13 15 14 12 17 19 18 16 15 15 13 10 8 10 12 16 14 15 14 12 7 5 4 4 5 4 3 4 4 3 3 2 2 2 2 1 3 3 6 5 5
10 12 13 13 15 15 16 19 21 14 13 13 11 10 6 4 9 9 12 14 11 8 9 8 7 5 6 7 8 4 3 3 3 0 3 1 1 2 2 3 3 5 9
10 10 11 12 13 12 17 19 18 14 10 10 11 12 12 11 11 15 13 11 8 6 6 4 6 7 5 8 6 4 5 7 4 3 2 2 1 1 1 1 4 7 10
8 7 6 11 11 10 15 17 16 7 6 7 7 10 12 12 17 22 16 14 10 8 12 18 19 18 19 15 11 8 3 4 2 1 2 3 1 1 1 1 1 7 9
12 6 8 7 9 9 13 16 15 7 7 6 4 6 9 14 21 23 17 16 14 11 13 13 11 14 13 12 9 4 7 4 3 1 2 3 1 2 3 1 2 2 3
Wind_Direction
185 182 196 198 206 202 211 212 217 227 238 238 232 229 241 253 253 234 233 235 236 245 249 244 246 224 216 212 206 198 190 191 197 194 191 173 170 166 155 140 131 113 107
188 195 194 205 213 199 208 213 210 215 229 236 252 249 251 254 252 249 236 241 232 238 243 247 250 248 237 231 222 217 215 210 207 213 216 210 207 186 181 148 167 135 125
194 194 196 205 214 206 207 213 230 222 236 242 246 246 247 249 251 250 238 232 241 236 239 241 244 245 250 249 224 216 241 230 221 221 223 225 225 203 198 189 186 169 166
195 197 199 208 208 200 195 195 200 215 227 230 245 254 254 253 253 248 244 232 232 239 240 238 239 240 244 250 253 224 216 220 216 226 230 227 225 213 211 209 200 199 197
201 202 208 212 195 197 200 195 208 192 209 237 238 251 258 257 253 250 240 237 231 231 237 243 235 235 237 245 254 254 236 227 216 208 220 224 219 220 218 218 218 218 216
203 202 203 203 197 197 208 195 204 207 207 220 239 247 250 249 244 237 243 236 235 233 231 233 237 233 231 235 246 262 273 268 246 222 213 215 209 220 232 219 228 230 229
206 207 213 205 201 208 210 202 189 204 228 205 236 284 266 243 242 236 226 233 237 241 239 227 225 223 231 233 236 249 262 278 289 314 214 210 206 223 234 230 224 225 229
208 205 207 212 210 213 206 202 195 194 214 179 185 115 291 312 278 243 221 224 233 232 247 236 234 232 221 220 229 247 265 276 299 323 225 212 201 227 232 234 252 234 237
210 211 211 211 212 210 216 211 202 203 222 202 200 167 208 234 298 303 258 223 226 218 242 237 237 232 224 215 228 236 252 274 299 313 323 217 200 226 234 249 252 245 247
216 213 217 215 215 208 218 213 205 205 207 216 198 229 238 165 188 309 321 298 232 238 242 244 235 252 216 222 191 189 214 177 301 315 320 301 205 225 237 259 264 275 271
217 216 215 218 221 218 217 209 204 210 206 218 207 168 224 232 230 191 249 263 328 258 253 241 238 214 145 142 161 151 134 122 334 328 329 346 355 333 303 321 326 346 7
213 221 219 216 215 217 219 212 211 213 214 216 213 212 193 178 210 213 232 193 219 261 239 198 171 156 126 111 116 108 106 38 316 314 355 21 31 18 349 335 322 328 344
210 218 212 213 218 218 218 214 210 217 214 217 216 212 218 218 175 201 220 228 223 227 234 58 74 103 117 117 108 115 111 178 194 264 143 95 45 23 351 325 330 339 338
226 226 213 215 217 215 216 217 218 216 216 219 221 217 216 219 210 208 214 201 236 237 215 192 126 137 112 78 91 125 115 143 113 67 68 65 25 42 341 335 329 324 322
227 222 214 212 215 217 216 214 218 220 215 218 222 222 219 213 209 210 205 206 217 233 214 207 163 129 119 111 124 112 101 95 106 82 67 96 110 74 347 354 343 327 318
222 221 215 214 214 216 217 214 221 224 217 220 219 220 221 218 204 200 205 208 211 226 221 152 117 139 143 116 143 117 102 59 77 104 107 102 79 62 44 9 339 321 310
224 223 219 218 218 217 215 217 221 222 219 225 222 216 219 208 202 203 204 205 207 204 224 121 116 119 124 155 134 103 113 119 126 130 131 113 128 120 323 313 321 314 313
224 223 216 219 221 221 217 217 219 217 221 223 225 216 215 202 205 201 200 205 205 198 203 161 135 137 122 242 128 143 130 141 146 128 142 146 150 200 298 325 319 323 339
226 225 224 221 222 222 219 219 220 218 218 222 220 213 213 199 205 201 202 203 203 170 164 132 146 121 109 204 106 113 135 143 190 176 134 144 137 57 25 10 27 39 17
227 222 221 224 222 222 220 219 218 223 221 217 212 204 205 200 203 202 203 200 171 162 142 128 115 128 158 141 120 133 151 52 69 19 43 95 68 57 57 61 40 12 346
230 223 215 222 226 220 222 218 213 217 218 210 205 201 202 201 200 196 191 187 166 142 142 135 118 140 135 150 172 160 122 112 50 25 12 8 57 69 56 32 357 340 54
250 234 228 221 219 224 214 201 208 216 214 208 195 189 183 186 194 186 183 172 168 160 149 137 145 154 163 154 127 142 124 153 189 349 57 353 37 73 63 16 350 63 48
255 240 228 224 223 221 207 203 207 211 214 204 191 179 171 189 147 127 109 108 108 117 148 149 157 165 151 169 139 130 139 122 132 337 98 281 18 37 44 12 4 78 28
247 254 242 225 222 226 199 201 209 210 204 196 187 185 174 161 150 136 118 99 86 81 125 135 149 142 119 131 120 121 122 106 75 56 69 149 5 114 336 25 70 50 40
256 219 237 232 222 220 199 198 185 195 196 189 179 175 166 155 147 137 123 118 103 95 95 100 100 106 106 115 124 116 100 111 117 196 337 116 314 309 66 295 46 60 46
264 242 239 228 229 222 196 196 181 160 149 143 128 132 159 145 147 142 133 137 131 140 128 112 102 88 92 111 109 122 146 147 134 87 222 99 95 51 346 338 16 47 40